Regional Weather Roundup
Issued by NWS Charleston, WV

Home | Current Version | Previous Version | Text Only | Print | Product List | Glossary Off
Versions: 1 2 3 4 5 6 7 8 9 10 11 12 13 14 15 16 17 18 19 20 21 22 23 24 25 26 27 28 29 30 31 32 33 34 35 36 37

000
ASUS41 KRLX 221410
RWRRLX
West Virginia Regional Weather Roundup
National Weather Service Charleston WV
1000 AM EDT WED OCT 22 2014

Note: "fair" indicates few or no clouds below 12,000 feet with no
significant weather and/or obstructions to visibility.

WVZ003-221500-
Northern Panhandle of West Virginia

CITY           SKY/WX    TMP DP  RH WIND       PRES   REMARKS
WHEELING       CLOUDY    47  43  86 N12       30.16R
$$

WVZ009-221500-
Northwest West Virginia

CITY           SKY/WX    TMP DP  RH WIND       PRES   REMARKS
PARKERSBURG    CLOUDY    49  44  83 N6        30.21R
$$

WVZ006-221500-
Western West Virginia

CITY           SKY/WX    TMP DP  RH WIND       PRES   REMARKS
HUNTINGTON     CLOUDY    47  42  83 VRB6      30.22R
$$

WVZ015-221500-
West Central West Virginia

CITY           SKY/WX    TMP DP  RH WIND       PRES   REMARKS
CHARLESTON     CLOUDY    47  43  86 VRB6      30.19R
$$

WVZ022-031-221500-
North Central West Virginia

CITY           SKY/WX    TMP DP  RH WIND       PRES   REMARKS
CLARKSBURG     CLOUDY    47  43  86 N9        30.14R
MORGANTOWN     CLOUDY    49  42  77 N10       30.14R
$$

WVZ025-035-042-045-221500-
Southern West Virginia

CITY           SKY/WX    TMP DP  RH WIND       PRES   REMARKS
BECKLEY        CLOUDY    42  39  89 NW12      30.14R FOG
LOGAN          FOG       43  43 100 CALM      30.19R VSB 3/4
BLUEFIELD      CLOUDY    42  38  85 W8        30.15R FOG
LEWISBURG      CLOUDY    47  39  73 W3        30.11R
$$

WVZ047-221500-
Northern Mountains of West Virginia

CITY           SKY/WX    TMP DP  RH WIND       PRES   REMARKS
ELKINS         CLOUDY    45  45 100 NW13      30.11R
$$

WVZ052-221500-
Eastern Panhandle of West Virginia

CITY           SKY/WX    TMP DP  RH WIND       PRES   REMARKS
MARTINSBURG    CLOUDY    54  44  69 NW15G24   30.00R
PETERSBURG     CLOUDY   N/A N/A N/A NW7       30.07R
$$



USA.gov is the U.S. government's official web portal to all federal, state and local government web resources and services.